Weather History for West Palm Beach, FL

Change the Weather History Date:

Monday, March 19, 2012

  Actual Average Record
Temperature  
Mean Temperature 75 °F 71 °F  
Max Temperature 79 °F 79 °F 89 °F (1924)
Min Temperature 71 °F 63 °F 37 °F (1892)
Degree Days  
Heating Degree Days 0 1  
Month to date heating degree days 3 19  
Since 1 July heating degree days 112 224  
Cooling Degree Days 10 6  
Month to date cooling degree days 160 112  
Year to date cooling degree days 476 347  
Growing Degree Days 24 (Base 50)    
Moisture  
Dew Point 60 °F    
Average Humidity 61    
Maximum Humidity 73    
Minimum Humidity 48    
Precipitation  
Precipitation 0.00 in 0.16 in 5.05 in (2001)
Month to date precipitation 1.10 2.78  
Year to date precipitation 5.30 8.73  
Snow  
Snow 0.00 in - - ()
Month to date snowfall 0.0  
Since 1 July snowfall 0.0  
Snow Depth 0.00 in    
Sea Level Pressure  
Sea Level Pressure 30.13 in    
Wind  
Wind Speed 11 mph (East)    
Max Wind Speed 16 mph    
Max Gust Speed 21 mph    
Visibility 10 miles    
Events      
T = Trace of Precipitation, MM = Missing Value Source: NWS Daily Summary

Daily Weather History Graph

Daily Weather History Graph

Search for Another Location

Airport:

Trip Planner

Search our weather history database for the weather conditions in past years. The results will help you decide how hot, cold, wet, or windy it might be!

Date:

Astronomy

Mar. 19, 2012 Rise Set
Actual Time 7:24 AM EDT 7:31 PM EDT
Civil Twilight 7:01 AM EDT 7:54 PM EDT
Nautical Twilight 6:34 AM EDT 8:21 PM EDT
Astronomical Twilight 6:07 AM EDT 8:48 PM EDT
Moon 5:22 AM EDT (3/19) 5:09 PM EDT (3/19)
Length of Visible Light 12h 52m
Length of Day
12h 06m
Waning Crescent, 8% of the Moon is Illuminated
Mar 19
Waning Crescent
Mar 22
New
Mar 30
First Quarter
Apr 6
Full
Apr 13
Last Quarter

Hourly Weather History & Observations

Time (EDT) Temp. Dew Point Humidity Pressure Visibility Wind Dir Wind Speed Gust Speed Precip Events Conditions
12:53 AM 73.0 °F 62.1 °F 68% 30.15 in 10.0 mi East 8.1 mph - N/A   Scattered Clouds
1:53 AM 72.0 °F 62.1 °F 71% 30.14 in 10.0 mi East 8.1 mph - N/A   Scattered Clouds
2:53 AM 72.0 °F 62.1 °F 71% 30.13 in 10.0 mi ENE 10.4 mph - N/A   Mostly Cloudy
3:53 AM 72.0 °F 61.0 °F 68% 30.12 in 10.0 mi East 9.2 mph - N/A   Scattered Clouds
4:53 AM 72.0 °F 61.0 °F 68% 30.12 in 10.0 mi ENE 8.1 mph - N/A   Partly Cloudy
5:53 AM 72.0 °F 61.0 °F 68% 30.13 in 10.0 mi ENE 8.1 mph - N/A   Scattered Clouds
6:53 AM 72.0 °F 61.0 °F 68% 30.14 in 10.0 mi ENE 5.8 mph - N/A   Mostly Cloudy
7:53 AM 71.6 °F 60.8 °F 69% 30.15 in 10.0 mi East 9.2 mph - N/A   Scattered Clouds
8:53 AM 73.9 °F 60.1 °F 62% 30.17 in 10.0 mi East 10.4 mph - N/A   Scattered Clouds
9:53 AM 75.9 °F 57.9 °F 54% 30.17 in 10.0 mi East 13.8 mph - N/A   Scattered Clouds
10:53 AM 77.0 °F 57.9 °F 52% 30.18 in 10.0 mi ESE 10.4 mph - N/A   Scattered Clouds
11:53 AM 77.0 °F 57.9 °F 52% 30.18 in 10.0 mi ENE 10.4 mph - N/A   Scattered Clouds
12:53 PM 75.9 °F 59.0 °F 56% 30.17 in 10.0 mi ESE 13.8 mph 20.7 mph N/A   Scattered Clouds
1:53 PM 78.1 °F 59.0 °F 52% 30.15 in 10.0 mi East 12.7 mph 18.4 mph N/A   Partly Cloudy
2:53 PM 78.1 °F 59.0 °F 52% 30.12 in 10.0 mi East 10.4 mph 19.6 mph N/A   Scattered Clouds
3:53 PM 78.1 °F 57.0 °F 48% 30.09 in 10.0 mi East 11.5 mph - N/A   Partly Cloudy
4:53 PM 77.0 °F 57.0 °F 50% 30.09 in 10.0 mi East 10.4 mph - N/A   Partly Cloudy
5:53 PM 75.9 °F 55.9 °F 50% 30.09 in 10.0 mi East 9.2 mph - N/A   Partly Cloudy
6:53 PM 75.0 °F 59.0 °F 57% 30.09 in 10.0 mi ENE 9.2 mph - N/A   Partly Cloudy
7:53 PM 73.9 °F 60.1 °F 62% 30.10 in 10.0 mi East 11.5 mph - N/A   Scattered Clouds
8:53 PM 73.9 °F 62.1 °F 66% 30.11 in 10.0 mi ENE 10.4 mph - N/A   Mostly Cloudy
9:53 PM 73.9 °F 62.1 °F 66% 30.12 in 10.0 mi East 12.7 mph - N/A   Scattered Clouds
10:53 PM 73.9 °F 62.1 °F 66% 30.13 in 10.0 mi East 9.2 mph - N/A   Scattered Clouds
11:53 PM 73.9 °F 63.0 °F 68% 30.12 in 10.0 mi East 12.7 mph - N/A   Mostly Cloudy